星链-35587(STARLINK-35587)

导读 | 豆包AI

STARLINK-355587是美国(US)于2025年10月25日发射的星链系列卫星,属于SpaceX公司星链星座组网计划的组成部分,该卫星旨在为全球范围尤其是偏远地区提供高速低延迟的宽带互联网服务,进一步补充完善星链星座的全球覆盖能力,支撑星链网络服务能力的持续拓展。

基本信息
目录编号:
66158
目录名称:
STARLINK-35587
国际标识:
2025-240N
轨道中心:
EARTH
卫星名称:
星链-35587
卫星全名:
星链-35587(STARLINK-35587)
卫星状态:
在轨 (已飞行212 天)
发射日期:
2025-10-25 UTC
国别 :
美国 (US)
星等 :
--
轨道信息
数据来源 国际轨道数据 AOE轨道数据
星历时间 2026-05-25T09:59:46+0800
8小时前
查看轨道信息
2026-05-22T01:00:00+0800
3天前
查看轨道信息
半长轴 6853.35km 6853.378km
偏心率 0.0001019 0.0001266
轨道倾角 53.157° 53.160°
近地点辐角 85.255° 93.953°
升交点赤经 68.043° 83.722°
平近点角 274.857° 24.794°
近地点 474.514km 474.373km
远地点 475.912km 476.109km
周期 94.105分钟 94.106分钟
每日圈数 15.302007 15.301914
详细信息
固有亮度:
5
最大亮度:
2.5
卫星平台:
Starlink V1.0
覆盖范围:
全球
运营商:
太空探索技术公司
运营商所在国:
美国
制造商(研发单位):
太空探索技术公司
制造商所在国:
美国
使用方式:
暂无
卫星简介
Starlink 计划是 SpaceX 推出的全球卫星互联网项目,通过发射低轨道卫星,为全球尤其是偏远地区提供高速、低延迟的互联网服务。自 2019 年起,Starlink 已部署数千颗卫星,旨在缩小全球数字鸿沟,推动互联网普及。该项目还为军事、航空等行业提供通信支持,带来广泛经济效益。
2D轨道图
3D轨道图
轨道高度分析图
轨道倾角分析图
轨道综合分析图
查看轨道综合分析图